SS 2

导读 | 星芒AI

SS-2卫星是中国研制的一颗用于空间科学探测的卫星,主要用于地球观测和环境监测。该卫星搭载了多种先进的遥感仪器,能够获取高分辨率的地球表面图像和大气数据。SS-2卫星的发射提升了中国在遥感技术和空间应用方面的能力,为气象预报、资源调查和灾害监测提供了重要支持。其运行稳定,数据应用广泛,是中国航天发展的重要成果之一。

基本信息
目录编号:
10544
目录名称:
SS 2
国际标识:
1977-112E
轨道中心:
EARTH
卫星名称:
SS 2
卫星全名:
--
卫星状态:
在轨 (已飞行17492 天)
发射日期:
1977-12-08 UTC
国别 :
美国 (US)
星等 :
--
轨道信息
数据来源 国际轨道数据
星历时间: 2025-10-28T14:29:12+0800
1天前
查看轨道信息
半长轴: 7303.899km
偏心率: 0.0536992
轨道倾角: 63.334°
近地点辐角 159.034°
升交点赤经 272.638°
平近点角 203.368°
近地点: 533.55km
远地点: 1317.978km
周期: 103.536分钟
每日圈数: 13.908191
详细信息
使用方式:
暂无
2D轨道图
3D轨道图
轨道高度分析图
轨道倾角分析图
轨道综合分析图
查看轨道综合分析图